Weather in Ichkino

Russia / Kurgan Oblast     56°14′44″N   63°51′59″E
temp.,
°C
wind,
m/s
gust,
m/s
humid.,
%
clouds,
%
prec.,
mm/h
press.,
hPa
HPBL,
m
20 january, wed
wed2023:00−17ese4891100 0.0 1022246
02:00−17ese51092100 0.0 1020281
05:00−16e61094100 0.1 1018315
08:00−16e61294100 0.8 1015416
11:00−15ese6995100 1.9 1014593
14:00−15ese4795100 1.6 1011565
17:00−15se1297100 2.4 101041
20:00−15wsw3596100 0.4 1010219
21 january, thu
thu2123:00−14w4996100 1.0 1011533
02:00−17w71291100 0.3 1012489
05:00−19w51192100 0.3 1013391
08:00−21wsw51193100 0.0 1013361
11:00−20w6109399 0.1 1014437
14:00−20w589163 0.0 1014379
17:00−23wsw449537 0.0 101378
20:00−23w34980 0.0 101467
22 january, fri
fri2223:00−23w34976 0.0 101467
02:00−23w369774 0.0 1014104
05:00−23w359884 0.0 101483
08:00−23w349895 0.0 101574
11:00−20wnw359797 0.1 1016225
14:00−19wnw2494100 0.1 1017308
17:00−22nnw239899 0.1 101824
20:00−24n3598100 0.1 1020100
23 january, sat
sat2323:00−24n3697100 0.1 1022224
02:00−27n359791 0.1 1026101
05:00−31n349760 0.1 102952
08:00−33n34960 0.0 103236
11:00−31nnw239511 0.0 103482
14:00−28wnw119198 0.0 1034179
17:00−29s129499 0.0 103419
20:00−28se3594100 0.0 1033185
24 january, sun
sun2423:00−26se4798100 0.3 1032252
02:00−25se5898100 0.6 1030257
05:00−24se4798100 1.2 1029322
08:00−24ese4797100 0.3 1029266
11:00−23ese4797100 0.3 1029251
14:00−21ese5797100 0.1 1029282
17:00−20ese5898100 0.4 1028300
20:00−19ese5898100 1.2 1027304